Kenneth Haugstad

Kenneth Haugstad

Statistiques 2026

  • Courses courues : 15
  • Nb de victoires : 1
  • Nb de places : 3
  • Écart gagnant : 3
  • Réussite à la gagne : 7%
  • Réussite à la place : 20%
Musique : 0a 4a 4a 1a 8a 3a 6a 6a 7a 6a 0a 5a 3a 0a 5a 5a (25) 0a 0a
DateRangCatégorieAlloc.Dist.HippodromeChevalRed. KmSpé.
09/12/16 D Trot 2 155€ 2 140m Swe-Solvalla Galene Attelé
03/12/16 5 Trot 13 469€ 2 140m Swe-Jagersro Danne Edel 1'14"0 Attelé
30/11/16 0 Trot 8 620€ 2 140m Swe-Solvalla Prins Alf 1'14"2 Attelé
30/11/16 0 Trot 6 465€ 2 160m Swe-Solvalla Colbert d'Am 1'17"6 Attelé
26/11/16 5 Trot 26 939€ 2 140m Swe-Solvalla Vasterbo Highflyer 1'13"3 Attelé
26/11/16 5 Trot 43 103€ 2 140m Swe-Solvalla Pythagoras Face 1'13"5 Attelé
24/11/16 3 Trot 3 232€ 2 140m Swe-Orebro Daina Westwood 1'18"4 Attelé
23/11/16 5 Trot 8 620€ 2 140m Swe-Solvalla Bella Beluga 1'14"0 Attelé
23/11/16 4 Trot 8 620€ 2 640m Swe-Solvalla Petter Rags 1'14"4 Attelé
18/11/16 4 Trot 3 232€ 1 640m Swe-Solvalla Hochthereitis Sox 1'14"0 Attelé
16/11/16 3 Trot 10 775€ 2 140m Swe-Solvalla Pythagoras Face 1'13"6 Attelé
15/11/16 1 Trot 3 232€ 2 140m Swe-Eskilstuna Danne Edel 1'15"4 Attelé
14/11/16 3 Trot 3 232€ 2 140m Swe-Mantorp Apple Bottom Lindy 1'16"6 Attelé
14/11/16 0 Trot 10 775€ 2 140m Swe-Mantorp Takeaway 1'14"9 Attelé
06/11/16 5 Trot 86 206€ 2 140m Swe-Eskilstuna Valley Brodde 1'13"3 Attelé
06/11/16 0 Trot 86 206€ 2 140m Swe-Eskilstuna Pythagoras Face 1'13"1 Attelé
06/11/16 0 Trot 10 775€ 2 140m Swe-Eskilstuna Doneisdone 1'14"1 Attelé
06/11/16 0 Trot 86 206€ 2 140m Swe-Eskilstuna Spoil Me 1'13"5 Attelé
06/11/16 4 Trot 10 775€ 2 140m Swe-Eskilstuna Florida Queen 1'14"2 Attelé
06/11/16 2 Trot 86 206€ 2 140m Swe-Eskilstuna Caddie Lisieux 1'13"2 Attelé
06/11/16 0 Trot 10 775€ 2 140m Swe-Eskilstuna Kabanoss 1'14"0 Attelé
06/11/16 D Trot 2 693€ 2 140m Swe-Eskilstuna Mr Big Sox Attelé
05/11/16 0 Trot 16 163€ 2 140m Swe-Eskilstuna Nato Dream 1'15"6 Attelé
05/11/16 6 Trot 2 693€ 2 140m Swe-Eskilstuna Tellmewhattodo 1'15"3 Attelé
02/11/16 6 Trot 8 620€ 2 140m Swe-Solvalla Dewey Luvs Britt 1'14"5 Attelé
01/11/16 4 Trot 10 775€ 1 640m Swe-Axevalla Exodus Hanover 1'11"7 Attelé
01/11/16 0 Trot 5 387€ 2 160m Swe-Axevalla Mellby Capital 1'18"2 Attelé
01/11/16 2 Trot 2 155€ 2 140m Swe-Axevalla Dajmen Am 1'17"1 Attelé
28/10/16 D Trot 11 853€ 2 100m Swe-Orebro Research Attelé
25/10/16 3 Trot 3 232€ 2 140m Swe-Eskilstuna Top Notch Lady As 1'15"5 Attelé
25/10/16 3 Trot 5 387€ 2 140m Swe-Eskilstuna Exodus Hanover 1'15"0 Attelé
23/10/16 4 Trot 10 775€ 2 140m Swe-Solvalla Spoil Me 1'15"0 Attelé
23/10/16 6 Trot 10 775€ 2 140m Swe-Solvalla Ottens Casher 1'14"2 Attelé
23/10/16 0 Trot 10 775€ 2 140m Swe-Solvalla Heavy Sound Attelé
23/10/16 6 Trot 10 775€ 2 140m Swe-Solvalla Takeaway 1'15"5 Attelé
21/10/16 6 Trot 3 232€ 2 160m Swe-Solvalla Occasione Font 1'14"7 Attelé
19/10/16 2 Trot 8 620€ 2 140m Swe-Solvalla Petter Rags 1'13"1 Attelé
19/10/16 8 Trot 18 857€ 1 640m Swe-Solvalla Enzo de Vonnas 1'18"7 Attelé
19/10/16 2 Trot 4 310€ 2 140m Swe-Solvalla Frantic 1'14"2 Attelé
18/10/16 0 Trot 1 616€ 2 140m Swe-Orebro Bottnas Duchess 1'20"3 Attelé
15/10/16 D Trot 13 469€ 1 640m Swe-Aby King City Attelé
15/10/16 0 Trot 4 310€ 2 140m Swe-Aby Unchained Feelings 1'15"0 Attelé
14/10/16 3 Trot 400 000€ 2 100m Vincennes In Vain Sund 1'12"6 Attelé lire

Après avoir patienté, a longtemps dû temporiser dans la ligne droite avant de très bien terminer.

12/10/16 D Trot 10 775€ 2 140m Swe-Solvalla Heavy Sound Attelé
12/10/16 1 Trot 4 310€ 1 640m Swe-Solvalla Nato Dream 1'10"6 Attelé
05/10/16 2 Trot 8 620€ 1 640m Swe-Solvalla Spoil Me 1'11"0 Attelé
05/10/16 0 Trot 8 620€ 2 140m Swe-Solvalla Bella Beluga 1'14"1 Attelé
01/10/16 0 Trot 10 775€ 2 640m Swe-Farjestad One Memphis 1'15"5 Attelé
30/09/16 6 Trot 2 155€ 2 140m Swe-Solvalla Dagny Face 1'16"4 Attelé
28/09/16 1 Trot 16 163€ 2 140m Swe-Solvalla In Vain Sund 1'12"2 Attelé